• MPC Preparation (Info)

  • MPEC 2015-B37 : 2015 BE

    The following Minor Planet Electronic Circular may be linked-to from your own Web pages, but must not otherwise be redistributed electronically.

    A form allowing access to any MPEC is at the bottom of this page.


    Read MPEC 2015-B36 Read MPEC 2015-B38


    M.P.E.C. 2015-B37                                Issued 2015 Jan. 17, 23:06 UT
    
         The Minor Planet Electronic Circulars contain information on unusual
             minor planets and routine data on comets.  They are published
       on behalf of Commission 20 of the International Astronomical Union by the
              Minor Planet Center, Smithsonian Astrophysical Observatory,
                              Cambridge, MA 02138, U.S.A.
    
                 Prepared using the Tamkin Foundation Computer Network
    
                                  MPC@CFA.HARVARD.EDU
                URL https://www.minorplanetcenter.net/    ISSN 1523-6714
    
                                        2015 BE
    
    Observations:
         K15B00E* C2015 01 16.33823 07 53 35.507+20 44 19.69         21.0 wLEB037F51
         K15B00E  C2015 01 16.35040 07 53 33.846+20 42 56.50         20.7 wLEB037F51
         K15B00E  C2015 01 16.37490 07 53 30.493+20 40 08.62         21.1 wLEB037F51
         K15B00E KC2015 01 17.28753007 51 39.73 +18 49 41.3          21.3 VuEB037H21
         K15B00E KC2015 01 17.29957507 51 38.03 +18 48 10.0          20.9 VuEB037H21
         K15B00E KC2015 01 17.31223207 51 36.20 +18 46 33.4          21.0 VuEB037H21
         K15B00E _C2015 01 17.55761307 51 04.129+18 15 31.85         20.3 RtEB037568
         K15B00E _C2015 01 17.55891607 51 03.938+18 15 21.63         20.2 RtEB037568
         K15B00E _C2015 01 17.56021807 51 03.749+18 15 11.38         20.4 RtEB037568
    
    Observer details:
    568 Mauna Kea.  Observers R. J. Wainscoat, P. Forshay.  Measurers M. Micheli,
        R. J. Wainscoat.  3.6-m Canada-France-Hawaii Telescope + CCD.
    F51 Pan-STARRS 1, Haleakala.  Observers B. Gibson, T. Goggia, N. Primak,
        A. Schultz, M. Willman.  Measurers K. Chambers, S. Chastel, L. Denneau,
        H. Flewelling, M. Huber, E. Magnier, E. Schunova, R. Wainscoat, C. Waters,
        R. Weryk.  1.8-m Ritchey-Chretien + CCD.
    H21 Astronomical Research Observatory, Westfield.  Observer R. Holmes.
        Measurers T. Linder, L. Buzzi, S. Foglia, T. Vorobjov.  0.61-m f/4.5
        astrograph + CCD, 0.81-m f/4.0 astrograph + CCD.
    
    Orbital elements:
    2015 BE                                                  Earth MOID = 0.0822 AU
    Epoch 2014 Dec. 9.0 TT = JDT 2457000.5                  MPC
    M 320.09750              (2000.0)            P               Q
    n   0.43111820     Peri.  244.16864     -0.97202146     +0.01083472
    a   1.7354222      Node   295.67622     +0.10803702     -0.86638123
    e   0.4713301      Incl.   15.09082     -0.20857199     -0.49926564
    P   2.29           H   24.8           G   0.15           U   8
    Residuals in seconds of arc
    150116 F51  0.2-  0.0     150117 H21  0.1-  0.1-    150117 568  0.2-  0.1+
    150116 F51  0.2-  0.1-    150117 H21  0.5+  0.0     150117 568  0.2-  0.1+
    150116 F51  0.3+  0.1+    150117 H21  0.4+  0.3-    150117 568  0.2-  0.1+
    
    Ephemeris:
    2015 BE                  a,e,i = 1.74, 0.47, 15                  q = 0.9175
    Date    TT    R. A. (2000) Decl.     Delta      r     Elong.  Phase     V
    2014 12 18    08 08 38.9 +40 49 59   0.3848  1.3169   144.7    25.6    24.5
    ...
    2015 01 02    08 09 30.4 +36 07 15   0.2445  1.2135   158.0    17.7    23.1
    ...
    2015 01 10    08 03 09.9 +29 55 43   0.1800  1.1601   168.1    10.1    22.1
    ...
    2015 01 16    07 54 11.2 +21 22 48   0.1379  1.1216   178.8     1.1    20.9
    2015 01 17    07 52 15.5 +19 25 54   0.1316  1.1153   178.5     1.3    20.8
    2015 01 18    07 50 11.4 +17 17 25   0.1255  1.1091   176.2     3.4    20.8
    ...
    2015 01 24    07 34 21.1 -00 37 12   0.09572 1.0729   156.7    21.3    20.9
    ...
    2015 02 01    06 59 18.5 -37 12 13   0.08405 1.0285   118.9    57.0    21.5
    ...
    2015 02 16    03 09 48.9 -77 57 02   0.1427  0.9616    75.3    96.5    23.9
    
    A. U. Tomatic                (C) Copyright 2015 MPC           M.P.E.C. 2015-B37
    

    Read MPEC 2015-B36 Read MPEC 2015-B38


    MPEC number:

    Enter an MPEC number in one of the following forms:

    • 1997-B01 (the full form)
    • J97B01 (the packed version of the full form)
    • B01 (the abbreviated form)